FW3178 Weather Reports


time (UTC)temp
C
wind
direction
speed
KPH
gust
KPH
rain 1hr
cm
rain 24hr
cm
rain mn
cm
humidity
%
barometer
mb
20260507014503 26 5 0.0 0.0 0.00 0.00 0.00 20 1011.4
20260507013004 26 5 0.0 0.0 0.00 0.00 0.00 20 1011.4
20260507011506 26 5 0.0 0.0 0.00 0.00 0.00 19 1011.4
20260507010002 27 5 0.0 0.0 0.00 0.00 0.00 19 1011.3
20260507004500 27 5 0.0 0.0 0.00 0.00 0.00 19 1011.4
20260507003059 27 5 0.0 0.0 0.00 0.00 0.00 20 1011.4
20260507001606 27 5 0.0 0.0 0.00 0.00 0.00 19 1011.3
20260507000058 27 5 0.0 0.0 0.00 0.00 0.00 20 1011.5
20260506234621 27 5 0.0 0.0 0.00 0.00 0.00 19 1011.5
20260506233054 27 5 0.0 0.0 0.00 0.00 0.00 20 1011.5
20260506231554 26 30 0.0 0.0 0.00 0.00 0.00 20 1011.8
20260506230050 27 17 0.0 0.0 0.00 0.00 0.00 20 1011.8
20260506224549 27 13 0.0 0.0 0.00 0.00 0.00 20 1011.9
20260506223050 27 12 0.0 0.0 0.00 0.00 0.00 21 1012.2
20260506221543 26 11 0.0 0.0 0.00 0.00 0.00 22 1012.4
20260506220041 26 5 0.0 0.0 0.00 0.00 0.00 24 1012.7
20260506214542 26 5 0.0 0.0 0.00 0.00 0.00 24 1012.8
20260506213036 26 318 0.0 0.0 0.00 0.00 0.00 26 1013.1
20260506211533 25 317 0.0 0.0 0.00 0.00 0.00 26 1013.2
20260506210037 25 312 0.0 0.0 0.00 0.00 0.00 26 1013.4
20260506204547 25 302 0.0 0.0 0.00 0.00 0.00 26 1013.5
20260506203032 25 301 0.0 0.0 0.00 0.00 0.00 26 1013.7
20260506201534 25 297 0.0 0.0 0.00 0.00 0.00 27 1013.8
20260506200033 24 298 0.0 0.0 0.00 0.00 0.00 27 1014.1
20260506194528 25 274 0.0 0.0 0.00 0.00 0.00 28 1014.2
20260506193025 24 273 0.0 0.0 0.00 0.00 0.00 28 1014.4
20260506191524 23 286 0.0 0.0 0.00 0.00 0.00 30 1014.6
20260506190021 23 286 0.0 0.0 0.00 0.00 0.00 31 1014.8
20260506184519 23 286 0.0 0.0 0.00 0.00 0.00 31 1014.9
20260506183016 22 280 0.0 0.0 0.00 0.00 0.00 32 1015.0
20260506181519 21 280 0.0 0.0 0.00 0.00 0.00 33 1015.0
20260506180015 21 280 0.0 0.0 0.00 0.00 0.00 35 1015.1
20260506174510 21 258 0.0 0.0 0.00 0.00 0.00 35 1015.2
20260506173007 21 257 0.0 0.0 0.00 0.00 0.00 36 1015.1
20260506171510 20 257 0.0 0.0 0.00 0.00 0.00 38 1015.2
20260506170002 20 257 0.0 0.0 0.00 0.00 0.00 39 1015.2
20260506164559 18 257 0.0 0.0 0.00 0.00 0.00 42 1015.2
20260506163055 18 257 0.0 0.0 0.00 0.00 0.00 44 1015.2
20260506161603 17 252 0.0 0.0 0.00 0.00 0.00 46 1015.2
20260506160047 16 236 0.0 0.0 0.00 0.00 0.00 48 1015.3
20260506154543 15 235 0.0 0.0 0.00 0.00 0.00 51 1015.2
20260506153040 14 213 0.0 0.0 0.00 0.00 0.00 53 1015.2
20260506151553 14 209 0.0 0.0 0.00 0.00 0.00 54 1015.2
20260506150035 13 207 0.0 0.0 0.00 0.00 0.00 55 1015.1
20260506144533 13 206 0.0 0.0 0.00 0.00 0.00 56 1015.1
20260506143041 12 206 0.0 0.0 0.00 0.00 0.00 60 1015.1
20260506141524 11 206 0.0 0.0 0.00 0.00 0.00 69 1015.1
20260506140020 9 206 0.0 0.0 0.00 0.00 0.00 74 1014.8
20260506134519 8 206 0.0 0.0 0.00 0.00 0.00 77 1014.6
20260506133023 7 206 0.0 0.0 0.00 0.00 0.00 79 1014.7
20260506131519 6 206 0.0 0.0 0.00 0.00 0.00 79 1014.6
20260506130015 6 206 0.0 0.0 0.00 0.00 0.00 79 1014.3
20260506124511 6 206 0.0 0.0 0.00 0.00 0.00 79 1014.2
20260506123010 6 206 0.0 0.0 0.00 0.00 0.00 79 1014.0
20260506121510 6 206 0.0 0.0 0.00 0.00 0.00 79 1013.9
20260506120008 6 206 0.0 0.0 0.00 0.00 0.00 79 1014.1
20260506114507 7 206 0.0 0.0 0.00 0.00 0.00 78 1013.9
20260506113007 7 206 0.0 0.0 0.00 0.00 0.00 78 1013.8
20260506111503 7 206 0.0 0.0 0.00 0.00 0.00 78 1013.8
20260506110002 7 206 0.0 0.0 0.00 0.00 0.00 78 1013.7
20260506104501 7 206 0.0 0.0 0.00 0.00 0.00 78 1013.6
20260506103059 7 207 0.0 0.0 0.00 0.00 0.00 78 1013.6
20260506101603 7 207 0.0 0.0 0.00 0.00 0.00 78 1013.4
20260506100056 7 207 0.0 0.0 0.00 0.00 0.00 77 1013.4
20260506094559 7 207 0.0 0.0 0.00 0.00 0.00 78 1013.3
20260506093057 8 207 0.0 0.0 0.00 0.00 0.00 77 1013.2
20260506091552 8 207 0.0 0.0 0.00 0.00 0.00 77 1013.2
20260506090051 8 206 0.0 0.0 0.00 0.00 0.00 78 1013.2
20260506084552 8 197 0.0 0.0 0.00 0.00 0.00 78 1013.3
20260506083049 8 196 0.0 0.0 0.00 0.00 0.00 78 1013.2
20260506081548 8 198 0.0 0.0 0.00 0.00 0.00 77 1013.3
20260506073047 8 193 0.0 0.0 0.00 0.00 0.00 78 1013.3
20260506071600 8 193 0.0 0.0 0.00 0.00 0.00 77 1013.3
20260506061538 9 202 0.0 0.0 0.00 0.00 0.00 73 1013.2
20260506044531 10 192 0.0 0.0 0.00 0.00 0.00 69 1012.4
20260506043029 10 198 0.0 0.0 0.00 0.00 0.00 68 1012.3
20260506041531 10 202 0.0 0.0 0.00 0.00 0.00 65 1012.0
20260506040027 10 201 0.0 0.0 0.00 0.00 0.00 64 1011.8
20260506034522 11 207 0.0 0.0 0.00 0.00 0.00 63 1011.5
20260506033026 11 213 0.0 0.0 0.00 0.00 0.00 61 1011.3
20260506031524 11 209 0.0 0.0 0.00 0.00 0.00 60 1011.2
20260506030022 11 207 0.0 0.0 0.00 0.00 0.00 58 1011.1
20260506024515 12 190 0.0 0.0 0.00 0.00 0.00 57 1010.7
20260506023013 12 185 0.0 0.0 0.00 0.00 0.00 56 1010.5
20260506021511 12 190 0.0 0.0 0.00 0.00 0.00 55 1010.2
20260506020014 12 210 0.0 0.0 0.00 0.00 0.00 54 1010.1